Terminal Aerodrome Forecast
Issued by NWS

Home | Current Version | Previous Version | Text Only | Print | Product List | Glossary On
Versions: 1 2 3 4 5 6 7 8 9 10 11 12 13 14 15 16 17 18 19
000
FTUS43 KLSX 290300 AAA
TAFCPS
TAF AMD
KCPS 290314Z 2903/2924 18006KT P6SM BKN250 WS017/24040KT
     FM291100 19006KT P6SM BKN015 WS017/24040KT
     FM291500 19010KT P6SM BKN015
     FM291900 20010KT P6SM SCT015=

USA.gov is the U.S. government's official web portal to all federal, state and local government web resources and services.